Wind_Speed
13 14 14 15 16 16 17 18 19 20 20 20 21 22 22 22 23 22 22 21 22 22 22 23 23 22 22 22 22 22 22 22 22 23 23 23 23 23 23 23 23 23 23
16 16 17 18 18 19 20 21 22 23 23 24 24 25 25 24 25 25 24 24 24 24 25 25 25 25 24 24 24 24 24 24 24 25 26 26 25 25 25 25 25 25 25
19 19 19 20 21 21 22 23 24 25 26 27 27 27 27 27 27 27 27 27 27 27 27 28 27 28 27 26 26 26 26 26 26 26 26 26 26 26 26 26 26 26 27
21 21 22 22 23 23 24 25 26 27 28 28 28 28 28 28 29 29 29 29 29 29 29 29 28 29 28 28 28 27 27 27 27 27 27 27 27 26 27 27 27 28 28
23 23 23 24 24 25 26 27 28 28 29 30 30 31 31 31 31 31 31 30 30 30 30 30 30 30 30 29 29 28 28 28 28 28 28 29 29 29 28 28 28 29 29
26 27 26 26 26 27 28 29 30 31 31 32 31 32 33 34 34 33 32 32 31 31 31 31 32 32 32 31 31 31 30 30 30 30 29 30 30 30 30 30 30 30 30
29 30 30 30 30 30 30 31 32 32 33 33 33 33 34 34 34 34 34 33 33 33 32 33 33 33 33 33 32 32 32 32 32 31 31 31 31 32 32 32 32 32 32
32 32 33 32 33 33 34 34 35 34 34 34 34 35 35 35 35 36 36 36 36 35 35 35 35 34 34 34 34 33 32 33 33 33 32 32 32 33 33 33 33 33 33
35 35 35 35 35 35 36 36 36 36 36 35 36 36 36 36 37 37 38 38 38 38 37 35 34 34 33 34 34 33 34 35 35 34 33 32 32 33 34 34 34 34 34
36 36 36 37 38 38 38 38 37 37 36 36 36 37 37 37 38 39 39 39 39 39 39 37 36 36 36 35 34 34 34 35 35 34 33 33 33 34 35 35 35 35 35
37 37 38 39 40 40 40 40 38 38 38 38 37 37 37 37 38 39 40 40 40 40 40 39 38 38 37 36 35 35 35 35 35 35 35 35 35 35 35 35 35 35 35
38 39 39 40 41 40 40 39 39 39 39 39 38 38 38 39 39 39 40 41 41 41 40 40 40 39 38 38 37 37 37 36 36 36 36 36 36 35 35 35 35 35 35
38 38 38 39 39 39 40 40 39 39 39 39 40 40 40 39 39 39 40 40 41 41 41 41 41 40 40 39 39 38 38 38 37 37 37 36 36 36 35 35 34 34 35
39 39 39 39 39 39 39 39 39 39 39 40 40 41 40 40 40 39 39 40 41 41 41 40 40 40 40 40 40 39 39 39 38 38 37 37 36 35 34 34 34 34 34
39 39 40 39 39 40 40 40 40 40 40 40 40 40 41 40 40 40 41 40 41 41 41 40 40 39 39 39 39 39 39 39 38 38 38 37 36 35 34 34 34 34 34
40 40 40 40 40 40 40 40 40 40 41 41 41 40 40 40 40 40 40 40 40 40 40 40 40 40 40 39 39 38 38 37 37 37 37 37 36 34 34 33 34 34 33
40 40 40 39 39 39 39 39 39 40 40 41 41 41 40 40 40 41 41 40 40 40 40 40 40 39 39 39 38 36 36 37 36 36 35 35 35 34 34 34 34 33 33
40 40 40 40 40 40 39 39 39 39 39 40 41 41 41 40 40 39 39 40 40 40 40 38 38 38 38 37 37 36 36 36 36 35 35 34 34 33 33 33 33 33 32
41 41 41 41 41 40 40 40 39 39 40 40 40 40 40 39 39 38 38 39 39 39 38 37 37 36 36 36 36 36 36 36 35 35 34 34 33 33 32 32 32 32 32
40 41 41 41 41 40 39 39 39 39 38 38 38 37 37 37 37 37 37 36 35 35 36 36 36 35 35 35 35 35 35 36 36 35 35 34 33 32 32 31 31 31 31
40 40 40 40 40 39 38 37 37 37 36 36 35 34 34 34 34 34 34 34 33 33 33 33 33 33 34 33 34 35 35 35 35 35 34 33 33 32 32 32 32 32 32
39 38 38 38 38 38 37 36 36 36 36 34 33 32 32 32 31 31 31 30 30 30 30 30 31 31 32 33 34 34 34 34 34 34 34 33 33 32 33 33 33 32 31
38 37 36 36 36 36 35 35 35 35 34 32 31 31 30 30 29 30 30 30 30 30 29 29 30 30 31 32 32 33 33 33 33 34 33 33 33 32 32 33 32 32 31
35 35 34 34 35 35 35 34 34 33 32 31 31 31 30 30 30 30 30 29 29 29 28 29 29 29 30 31 32 33 33 33 32 32 33 33 31 31 32 32 32 31 31
32 33 33 32 33 32 32 32 32 31 30 30 31 31 30 30 30 30 30 29 29 28 28 29 29 29 30 31 32 32 32 32 32 32 31 32 32 32 32 32 31 31 31
31 31 31 31 31 30 30 30 29 29 29 29 30 30 30 29 30 30 29 28 28 28 28 29 29 30 29 29 30 30 30 30 30 31 31 31 32 32 31 31 31 31 31
Wind_Direction
286 286 288 289 288 287 286 286 286 286 287 285 284 283 281 279 279 283 283 279 278 279 281 283 284 286 285 286 286 286 286 284 282 282 280 279 278 278 280 280 280 280 280
286 286 287 289 288 288 288 286 285 286 285 285 284 283 283 280 278 279 280 279 279 281 282 284 286 285 286 285 283 282 283 282 281 280 280 280 278 278 279 279 280 281 280
289 288 287 286 286 286 286 286 285 285 286 285 282 282 282 282 280 279 278 278 278 280 281 282 282 283 282 281 281 281 281 280 280 279 279 279 278 278 279 279 279 280 281
288 290 288 287 287 287 287 287 286 285 285 283 281 281 281 280 280 279 277 277 278 279 281 281 282 281 281 280 280 281 281 279 278 279 279 279 278 279 280 279 279 280 280
286 287 286 286 287 287 287 287 287 287 285 283 281 280 280 280 279 280 278 278 278 278 280 280 282 282 280 280 280 280 279 278 278 278 278 278 279 279 280 280 281 281 281
284 285 285 285 285 285 286 287 286 286 284 283 282 281 280 280 279 279 278 279 279 279 279 279 281 281 280 280 280 278 277 278 279 278 277 277 278 279 280 280 280 279 280
283 284 283 284 284 285 286 287 288 287 285 283 282 281 280 279 278 277 277 278 278 279 280 281 282 281 279 278 279 279 278 278 278 278 278 277 277 278 279 279 279 279 278
283 284 282 283 284 284 286 287 287 286 284 284 283 282 280 279 278 276 276 277 279 280 280 281 279 279 279 277 278 278 278 277 277 277 276 276 277 277 279 279 279 279 278
284 285 283 285 287 286 286 287 286 285 284 283 282 280 280 279 278 276 275 276 277 278 279 280 279 278 279 277 276 277 277 276 277 277 275 275 276 278 279 278 279 279 279
285 285 286 287 287 287 288 287 286 285 285 284 284 282 280 280 279 277 276 276 277 277 277 277 278 277 277 277 275 275 275 276 276 276 275 276 277 280 280 279 279 280 279
285 285 286 286 287 287 287 286 286 286 286 285 284 284 283 283 282 280 278 277 276 276 275 275 275 275 276 275 275 274 275 275 275 275 276 277 278 279 280 279 280 280 280
286 286 286 287 288 288 288 288 287 286 286 284 284 285 285 284 283 281 279 277 276 275 275 274 274 274 274 274 274 274 274 274 274 274 275 276 276 277 278 279 280 281 281
286 288 289 289 290 290 290 289 288 287 286 285 284 284 283 283 282 281 279 278 277 275 274 273 272 272 272 273 273 273 273 272 272 273 274 275 276 276 278 278 278 279 280
287 289 290 291 291 291 291 291 290 289 288 287 284 283 282 282 282 281 280 279 278 276 274 273 272 271 271 271 271 271 271 271 271 272 273 275 276 276 277 278 279 280 280
289 289 290 292 292 293 293 292 291 289 288 287 286 284 282 280 281 281 280 279 279 278 275 272 271 271 271 270 270 270 270 270 270 272 273 273 274 275 275 276 278 279 279
289 290 291 292 293 293 292 291 290 289 288 288 287 286 284 282 281 280 279 278 277 276 275 273 271 271 269 269 269 269 268 268 269 271 271 271 272 274 275 275 276 278 279
290 291 293 293 293 292 293 292 291 289 287 287 287 287 286 284 282 280 278 277 275 274 274 271 269 268 268 268 267 267 267 266 267 268 270 271 271 272 274 274 275 277 278
292 294 294 295 295 294 293 293 292 290 288 287 287 286 286 285 284 282 278 276 274 274 273 271 270 267 266 266 266 266 266 265 265 266 269 270 270 270 272 273 274 276 277
292 294 295 295 295 294 293 293 292 291 290 289 288 287 286 285 284 282 280 278 275 273 272 271 270 268 266 265 265 265 265 265 264 266 267 268 269 269 271 272 272 274 275
293 294 294 294 294 294 293 293 293 293 293 292 291 289 287 285 284 283 281 280 278 276 273 271 270 268 267 265 264 264 264 265 264 264 265 267 268 269 270 270 270 271 272
293 294 293 293 293 294 294 294 294 294 295 294 293 290 287 286 285 284 281 280 280 278 275 271 269 268 267 266 266 265 265 264 264 264 264 266 267 268 267 267 268 269 271
293 292 292 293 293 294 293 293 293 294 295 295 293 291 288 286 285 284 282 281 279 277 275 271 268 266 265 266 267 267 266 264 263 264 265 266 267 268 268 267 268 269 270
292 292 293 293 293 293 293 293 294 294 295 294 294 292 291 288 285 283 281 279 279 277 274 272 269 268 267 267 268 267 268 268 267 267 266 266 266 267 268 269 268 268 269
292 293 294 294 295 295 294 293 294 294 293 293 292 291 290 288 286 285 284 281 278 277 274 272 271 270 268 267 268 268 268 269 269 269 266 266 266 268 268 268 269 269 268
294 295 295 295 296 296 295 294 293 293 293 292 292 291 290 289 287 285 284 282 280 278 275 273 272 271 271 270 269 269 269 269 269 267 265 265 266 267 266 266 268 268 268
296 296 295 295 296 296 296 295 295 295 294 294 294 293 290 289 288 286 283 281 280 278 276 274 273 272 273 272 271 269 267 266 266 266 264 264 265 265 265 268 269 269 270
Height
5891 5890 5890 5889 5888 5887 5887 5886 5885 5884 5883 5882 5881 5880 5878 5877 5876 5875 5874 5873 5872 5871 5870 5869 5868 5867 5866 5865 5863 5862 5861 5861 5860 5859 5858 5857 5856 5855 5855 5854 5853 5852 5851
5887 5886 5885 5884 5883 5883 5882 5881 5880 5879 5878 5876 5875 5874 5873 5872 5871 5870 5869 5868 5866 5865 5864 5863 5862 5861 5859 5858 5857 5856 5855 5854 5853 5853 5852 5851 5850 5849 5848 5847 5846 5845 5844
5882 5881 5880 5879 5878 5877 5876 5875 5874 5873 5871 5870 5869 5868 5867 5865 5864 5863 5862 5861 5860 5859 5858 5856 5855 5854 5852 5851 5850 5848 5847 5847 5846 5845 5844 5844 5843 5842 5841 5840 5839 5839 5838
5877 5876 5875 5874 5872 5871 5870 5868 5867 5866 5864 5863 5862 5861 5859 5858 5857 5856 5855 5854 5853 5852 5851 5849 5848 5847 5845 5844 5843 5842 5840 5839 5838 5838 5837 5836 5836 5835 5834 5833 5833 5832 5831
5871 5870 5869 5867 5866 5864 5863 5861 5860 5858 5857 5855 5854 5853 5852 5850 5850 5849 5847 5847 5846 5845 5843 5842 5840 5839 5838 5836 5835 5834 5833 5832 5831 5830 5830 5829 5828 5827 5827 5826 5825 5824 5823
5865 5863 5861 5860 5858 5857 5855 5853 5852 5850 5848 5847 5846 5845 5843 5842 5841 5840 5839 5838 5837 5836 5835 5834 5832 5831 5830 5829 5827 5826 5825 5824 5823 5822 5822 5821 5820 5819 5819 5818 5817 5816 5815
5856 5855 5853 5852 5850 5848 5847 5845 5843 5842 5840 5838 5837 5835 5834 5833 5832 5831 5830 5829 5828 5827 5826 5825 5823 5822 5821 5820 5818 5817 5816 5816 5815 5815 5814 5813 5812 5811 5810 5809 5808 5808 5807
5847 5846 5844 5843 5841 5839 5837 5835 5834 5832 5830 5828 5827 5826 5824 5823 5822 5821 5820 5820 5819 5818 5817 5815 5814 5813 5812 5811 5810 5809 5808 5807 5806 5805 5805 5804 5803 5802 5801 5800 5799 5798 5798
5837 5835 5834 5833 5831 5829 5827 5825 5823 5822 5820 5818 5817 5815 5814 5813 5811 5810 5810 5809 5808 5807 5807 5805 5804 5803 5802 5801 5801 5800 5799 5798 5797 5796 5795 5794 5793 5792 5791 5791 5790 5789 5788
5827 5826 5824 5822 5820 5818 5816 5815 5813 5811 5809 5807 5806 5805 5803 5802 5800 5799 5798 5797 5797 5797 5796 5795 5794 5793 5792 5791 5790 5790 5789 5789 5787 5786 5786 5785 5784 5783 5781 5780 5780 5779 5778
5817 5815 5813 5811 5809 5807 5805 5803 5801 5800 5798 5797 5795 5793 5792 5790 5789 5787 5786 5785 5785 5785 5784 5784 5783 5782 5781 5780 5780 5779 5779 5778 5777 5777 5776 5775 5774 5773 5772 5770 5769 5768 5768
5806 5804 5802 5800 5797 5795 5793 5791 5790 5788 5786 5785 5783 5782 5780 5779 5777 5776 5775 5774 5773 5773 5773 5772 5771 5770 5769 5769 5769 5768 5768 5767 5767 5766 5766 5765 5764 5763 5762 5761 5760 5758 5757
5795 5792 5790 5788 5785 5783 5781 5779 5777 5776 5774 5773 5771 5770 5768 5767 5765 5764 5763 5762 5761 5760 5760 5759 5759 5758 5757 5757 5757 5757 5756 5756 5756 5755 5755 5754 5754 5753 5752 5751 5749 5748 5747
5784 5781 5779 5776 5774 5772 5770 5767 5765 5763 5761 5760 5759 5757 5756 5755 5753 5752 5751 5750 5748 5747 5747 5746 5745 5745 5745 5745 5745 5744 5744 5745 5744 5744 5744 5743 5743 5742 5741 5740 5739 5738 5737
5773 5770 5768 5765 5762 5759 5757 5755 5753 5751 5749 5747 5746 5744 5743 5742 5741 5739 5737 5737 5735 5734 5733 5733 5733 5733 5733 5733 5733 5733 5733 5733 5733 5732 5732 5732 5731 5731 5731 5730 5729 5728 5727
5762 5759 5756 5754 5751 5748 5745 5743 5740 5738 5736 5734 5732 5731 5729 5728 5727 5726 5724 5723 5722 5721 5720 5720 5720 5720 5721 5721 5721 5721 5721 5721 5721 5721 5721 5721 5721 5720 5720 5719 5719 5718 5716
5750 5747 5744 5741 5739 5736 5733 5731 5728 5726 5723 5721 5719 5717 5716 5715 5714 5712 5711 5710 5709 5708 5707 5707 5708 5708 5708 5708 5709 5709 5710 5710 5710 5710 5710 5710 5710 5710 5710 5709 5708 5707 5706
5738 5735 5732 5730 5727 5724 5721 5719 5716 5714 5712 5709 5707 5705 5703 5702 5701 5699 5698 5696 5696 5695 5695 5695 5694 5695 5695 5696 5697 5697 5698 5698 5698 5699 5699 5699 5699 5699 5699 5698 5698 5697 5697
5726 5723 5720 5718 5715 5712 5709 5707 5704 5702 5699 5697 5695 5693 5690 5689 5687 5686 5684 5683 5682 5682 5682 5681 5681 5682 5683 5684 5684 5685 5686 5686 5687 5687 5688 5688 5688 5688 5688 5688 5687 5687 5687
5714 5712 5709 5706 5703 5700 5697 5695 5692 5690 5687 5684 5682 5680 5678 5676 5675 5673 5672 5670 5670 5669 5669 5668 5669 5670 5670 5671 5672 5673 5674 5675 5676 5676 5677 5677 5677 5677 5677 5677 5677 5677 5677
5703 5700 5697 5694 5692 5689 5686 5684 5681 5678 5675 5673 5670 5668 5666 5665 5663 5662 5660 5659 5658 5657 5657 5656 5657 5658 5659 5660 5661 5661 5662 5663 5664 5665 5666 5666 5666 5666 5666 5667 5667 5666 5667
5691 5688 5685 5683 5680 5677 5675 5673 5670 5667 5665 5662 5660 5658 5656 5654 5653 5651 5650 5649 5648 5647 5646 5646 5646 5647 5648 5648 5649 5650 5650 5651 5652 5653 5654 5654 5654 5655 5655 5655 5656 5656 5656
5680 5677 5674 5672 5669 5667 5664 5662 5659 5657 5654 5652 5650 5648 5646 5644 5642 5641 5640 5639 5638 5637 5636 5636 5636 5637 5637 5637 5638 5638 5639 5640 5641 5641 5642 5642 5643 5643 5644 5644 5644 5645 5645
5669 5667 5664 5662 5659 5656 5654 5651 5649 5646 5644 5642 5640 5638 5636 5634 5633 5631 5630 5629 5628 5627 5626 5626 5626 5626 5627 5627 5627 5628 5628 5629 5629 5630 5630 5631 5631 5632 5633 5633 5633 5634 5634
5659 5657 5655 5652 5649 5647 5644 5642 5639 5637 5635 5632 5630 5628 5626 5624 5622 5621 5620 5619 5618 5617 5616 5616 5616 5616 5616 5616 5616 5616 5617 5617 5618 5618 5619 5620 5620 5621 5622 5622 5623 5622 5622
5650 5648 5645 5643 5640 5637 5635 5632 5630 5627 5625 5623 5620 5618 5616 5614 5612 5611 5609 5608 5608 5607 5606 5606 5605 5605 5605 5604 5604 5604 5605 5606 5607 5607 5608 5609 5609 5610 5611 5611 5611 5611 5611